SKW5770 KASE-KDEN

Flight info

Callsign SKW5770
Flight time 0h 30m
Altitude 23000
Route LINDZ1 LINDZ IDENE JNETT SSKII4
Aircraft E75L/M-SDE3GILORVW/S

Departure

Time 2026-04-25 22:30
Airport Aspen-Pitkin County Airport (Sardy Field) (KASE)

Arrival

Time 2026-04-25 23:00
Airport Denver International Airport (KDEN)
Time Latitude Longitude Altitude Speed Heading
2026-04-25 22:05 39.21970 -106.86534 7808 ft 0 kts 101°
2026-04-25 22:18 39.21970 -106.86535 7808 ft 0 kts 101°
2026-04-25 22:19 39.21970 -106.86540 7808 ft 2 kts 101°
2026-04-25 22:19 39.21973 -106.86560 7808 ft 2 kts 100°
2026-04-25 22:19 39.21977 -106.86579 7808 ft 2 kts 101°
2026-04-25 22:19 39.21984 -106.86600 7807 ft 2 kts 138°
2026-04-25 22:20 39.21993 -106.86607 7806 ft 1 kts 159°
2026-04-25 22:20 39.21999 -106.86610 7806 ft 0 kts 161°
2026-04-25 22:22 39.22001 -106.86610 7806 ft 0 kts 161°
2026-04-25 22:23 39.21997 -106.86608 7806 ft 1 kts 161°
2026-04-25 22:23 39.21946 -106.86585 7810 ft 11 kts 160°
2026-04-25 22:23 39.21870 -106.86549 7816 ft 7 kts 160°
2026-04-25 22:23 39.21823 -106.86527 7820 ft 4 kts 160°
2026-04-25 22:24 39.21776 -106.86505 7825 ft 9 kts 161°
2026-04-25 22:24 39.21676 -106.86459 7833 ft 16 kts 159°
2026-04-25 22:24 39.21539 -106.86393 7841 ft 17 kts 158°
2026-04-25 22:24 39.21425 -106.86337 7848 ft 12 kts 160°
2026-04-25 22:25 39.21341 -106.86298 7853 ft 9 kts 160°
2026-04-25 22:25 39.21272 -106.86265 7856 ft 8 kts 159°
2026-04-25 22:25 39.21234 -106.86247 7858 ft 0 kts 164°
2026-04-25 22:27 39.21223 -106.86244 7858 ft 2 kts 178°
2026-04-25 22:27 39.21203 -106.86249 7859 ft 3 kts 202°
2026-04-25 22:27 39.21182 -106.86278 7861 ft 3 kts 248°
2026-04-25 22:28 39.21174 -106.86307 7863 ft 3 kts 250°
2026-04-25 22:28 39.21168 -106.86329 7864 ft 2 kts 255°
2026-04-25 22:28 39.21174 -106.86340 7865 ft 1 kts 341°
2026-04-25 22:28 39.21176 -106.86341 7864 ft 0 kts 339°
2026-04-25 22:29 39.21449 -106.86472 7851 ft 77 kts 340°
2026-04-25 22:29 39.22280 -106.86873 7779 ft 148 kts 339°
2026-04-25 22:29 39.23504 -106.87434 7982 ft 174 kts 338°
2026-04-25 22:30 39.26190 -106.87994 9325 ft 181 kts 349°
2026-04-25 22:30 39.27487 -106.88708 9876 ft 184 kts 310°
2026-04-25 22:30 39.28155 -106.90279 10426 ft 170 kts 285°
2026-04-25 22:30 39.28407 -106.91362 10767 ft 171 kts 281°
2026-04-25 22:31 39.28827 -106.93504 11418 ft 176 kts 281°
2026-04-25 22:31 39.29150 -106.95154 11641 ft 196 kts 281°
2026-04-25 22:31 39.29510 -106.96990 11944 ft 212 kts 281°
2026-04-25 22:31 39.29899 -106.98972 12192 ft 232 kts 281°
2026-04-25 22:32 39.30325 -107.01190 12483 ft 252 kts 281°
2026-04-25 22:32 39.30764 -107.03490 12785 ft 269 kts 281°
2026-04-25 22:32 39.31289 -107.05964 13066 ft 288 kts 291°
2026-04-25 22:32 39.32574 -107.08072 13317 ft 313 kts 316°
2026-04-25 22:33 39.34275 -107.10107 13637 ft 326 kts 312°
2026-04-25 22:33 39.35983 -107.12224 14201 ft 332 kts 312°
2026-04-25 22:33 39.37944 -107.13987 14822 ft 343 kts 336°
2026-04-25 22:33 39.40342 -107.14414 15479 ft 353 kts
2026-04-25 22:34 39.42727 -107.13406 16073 ft 363 kts 28°
2026-04-25 22:34 39.44735 -107.11401 16635 ft 369 kts 50°
2026-04-25 22:34 39.45932 -107.08456 17175 ft 371 kts 77°
2026-04-25 22:34 39.46130 -107.05103 17717 ft 370 kts 99°
2026-04-25 22:35 39.45695 -107.01864 18263 ft 372 kts 105°
2026-04-25 22:35 39.45113 -106.98510 18798 ft 376 kts 107°
2026-04-25 22:35 39.44485 -106.95152 19299 ft 380 kts 107°
2026-04-25 22:35 39.43840 -106.91792 19778 ft 386 kts 107°
2026-04-25 22:36 39.43184 -106.88407 20249 ft 390 kts 107°
2026-04-25 22:36 39.42513 -106.84959 20714 ft 395 kts 107°
2026-04-25 22:36 39.41839 -106.81506 21166 ft 400 kts 107°
2026-04-25 22:36 39.41152 -106.77997 21646 ft 404 kts 107°
2026-04-25 22:37 39.40459 -106.74460 22100 ft 408 kts 107°
2026-04-25 22:37 39.39746 -106.70830 22491 ft 414 kts 107°
2026-04-25 22:37 39.39030 -106.67186 22910 ft 418 kts 107°
2026-04-25 22:37 39.38299 -106.63481 23047 ft 430 kts 107°
2026-04-25 22:38 39.37539 -106.59625 23077 ft 434 kts 107°
2026-04-25 22:38 39.36779 -106.55783 23070 ft 436 kts 107°
2026-04-25 22:38 39.36029 -106.51997 23072 ft 435 kts 107°
2026-04-25 22:38 39.35262 -106.48229 23064 ft 433 kts 110°
2026-04-25 22:39 39.34226 -106.44579 23055 ft 429 kts 114°
2026-04-25 22:39 39.33141 -106.40923 23069 ft 432 kts 114°
2026-04-25 22:39 39.32078 -106.37340 23053 ft 432 kts 114°
2026-04-25 22:39 39.31004 -106.33724 23074 ft 430 kts 115°
2026-04-25 22:40 39.29929 -106.30113 23065 ft 429 kts 114°
2026-04-25 22:40 39.28850 -106.26495 23073 ft 431 kts 115°
2026-04-25 22:40 39.27777 -106.22900 23083 ft 429 kts 115°
2026-04-25 22:40 39.26707 -106.19320 23065 ft 430 kts 114°
2026-04-25 22:41 39.25638 -106.15720 23051 ft 429 kts 112°
2026-04-25 22:41 39.25176 -106.11852 23067 ft 435 kts 89°
2026-04-25 22:41 39.25672 -106.07864 23083 ft 438 kts 78°
2026-04-25 22:41 39.26318 -106.04018 23047 ft 436 kts 77°
2026-04-25 22:42 39.26981 -106.00101 23060 ft 437 kts 77°
2026-04-25 22:42 39.27637 -105.96219 23056 ft 432 kts 78°
2026-04-25 22:42 39.28270 -105.92463 23039 ft 423 kts 78°
2026-04-25 22:42 39.28899 -105.88733 23052 ft 422 kts 77°
2026-04-25 22:43 39.29518 -105.85049 23052 ft 422 kts 77°
2026-04-25 22:43 39.30155 -105.81255 23056 ft 424 kts 78°
2026-04-25 22:43 39.30782 -105.77502 23049 ft 424 kts 77°
2026-04-25 22:43 39.31426 -105.73653 22933 ft 426 kts 78°
2026-04-25 22:44 39.32065 -105.69814 22351 ft 422 kts 78°
2026-04-25 22:44 39.32967 -105.66118 21901 ft 409 kts 64°
2026-04-25 22:44 39.34126 -105.62901 21916 ft 386 kts 64°
2026-04-25 22:44 39.35260 -105.59782 21826 ft 377 kts 63°
2026-04-25 22:45 39.36399 -105.56658 21367 ft 380 kts 64°
2026-04-25 22:45 39.37561 -105.53465 20863 ft 378 kts 64°
2026-04-25 22:45 39.38703 -105.50325 20341 ft 374 kts 64°
2026-04-25 22:45 39.39798 -105.47315 19841 ft 369 kts 64°
2026-04-25 22:46 39.40892 -105.44303 19358 ft 364 kts 64°
2026-04-25 22:46 39.41582 -105.41254 18928 ft 355 kts 88°
2026-04-25 22:46 39.41667 -105.38074 19004 ft 354 kts 90°
2026-04-25 22:46 39.41708 -105.34772 18978 ft 360 kts 91°
2026-04-25 22:47 39.41737 -105.31255 18516 ft 361 kts 91°
2026-04-25 22:47 39.41758 -105.28033 18036 ft 357 kts 91°
2026-04-25 22:47 39.41776 -105.24854 17558 ft 351 kts 91°
2026-04-25 22:47 39.41792 -105.21723 17100 ft 348 kts 91°
2026-04-25 22:48 39.41806 -105.18622 16638 ft 344 kts 91°
2026-04-25 22:48 39.41821 -105.15577 16172 ft 338 kts 91°
2026-04-25 22:48 39.41833 -105.12563 15737 ft 332 kts 91°
2026-04-25 22:48 39.41845 -105.09619 15278 ft 328 kts 91°
2026-04-25 22:49 39.41857 -105.06692 14839 ft 322 kts 91°
2026-04-25 22:49 39.41866 -105.03834 14361 ft 313 kts 91°
2026-04-25 22:49 39.41876 -105.01069 14005 ft 301 kts 91°
2026-04-25 22:49 39.41884 -104.98431 13596 ft 291 kts 91°
2026-04-25 22:50 39.41891 -104.95828 13214 ft 283 kts 91°
2026-04-25 22:50 39.41991 -104.93312 12950 ft 277 kts 84°
2026-04-25 22:50 39.42204 -104.90919 12951 ft 267 kts 84°
2026-04-25 22:50 39.42416 -104.88511 12748 ft 272 kts 84°
2026-04-25 22:51 39.42635 -104.86022 12411 ft 274 kts 84°
2026-04-25 22:51 39.42854 -104.83562 12061 ft 272 kts 84°
2026-04-25 22:51 39.43077 -104.81049 11700 ft 269 kts 84°
2026-04-25 22:51 39.43295 -104.78584 11333 ft 266 kts 84°
2026-04-25 22:52 39.43573 -104.76148 10973 ft 264 kts 73°
2026-04-25 22:52 39.44228 -104.73928 10938 ft 253 kts 69°
2026-04-25 22:52 39.45174 -104.71813 10730 ft 260 kts 40°
2026-04-25 22:52 39.46740 -104.70584 10484 ft 260 kts 26°
2026-04-25 22:53 39.48380 -104.69537 10120 ft 261 kts 21°
2026-04-25 22:53 39.50138 -104.69190 10030 ft 251 kts
2026-04-25 22:53 39.51890 -104.69143 10000 ft 253 kts
2026-04-25 22:53 39.53671 -104.69106 10000 ft 258 kts 360°
2026-04-25 22:54 39.55467 -104.69089 10004 ft 257 kts 359°
2026-04-25 22:54 39.57253 -104.69071 10001 ft 255 kts 360°
2026-04-25 22:54 39.59039 -104.69050 10018 ft 257 kts 359°
2026-04-25 22:54 39.60834 -104.69025 10047 ft 255 kts 360°
2026-04-25 22:55 39.62611 -104.69005 9876 ft 259 kts 359°
2026-04-25 22:55 39.64521 -104.68986 9554 ft 252 kts
2026-04-25 22:55 39.66277 -104.68965 9232 ft 248 kts
2026-04-25 22:55 39.67966 -104.68942 8970 ft 239 kts
2026-04-25 22:56 39.69673 -104.68920 8625 ft 234 kts
2026-04-25 22:56 39.71343 -104.68904 8289 ft 228 kts
2026-04-25 22:56 39.72960 -104.68883 7965 ft 223 kts
2026-04-25 22:56 39.74466 -104.68864 7755 ft 205 kts
2026-04-25 22:57 39.75834 -104.68852 7424 ft 185 kts
2026-04-25 22:57 39.77112 -104.68836 7138 ft 168 kts
2026-04-25 22:57 39.78359 -104.68822 6885 ft 154 kts
2026-04-25 22:57 39.79488 -104.68807 6677 ft 144 kts
2026-04-25 22:58 39.80594 -104.68793 6478 ft 141 kts
2026-04-25 22:58 39.81643 -104.68780 6286 ft 141 kts
2026-04-25 22:58 39.82772 -104.68765 6081 ft 143 kts
2026-04-25 22:58 39.83860 -104.68752 5877 ft 143 kts
2026-04-25 22:59 39.84946 -104.68739 5670 ft 140 kts
2026-04-25 22:59 39.85942 -104.68727 5502 ft 139 kts
2026-04-25 22:59 39.86900 -104.68717 5363 ft 129 kts
2026-04-25 22:59 39.87597 -104.68702 5362 ft 76 kts
2026-04-25 23:00 39.88071 -104.68697 5362 ft 55 kts 360°
2026-04-25 23:00 39.88387 -104.68675 5362 ft 39 kts 12°
2026-04-25 23:00 39.88589 -104.68574 5363 ft 17 kts 31°
2026-04-25 23:00 39.88622 -104.68516 5365 ft 5 kts 103°
2026-04-25 23:01 39.88595 -104.68485 5365 ft 4 kts 161°
2026-04-25 23:01 39.88548 -104.68481 5365 ft 7 kts 180°
2026-04-25 23:01 39.88479 -104.68480 5364 ft 10 kts 180°
2026-04-25 23:01 39.88388 -104.68482 5363 ft 13 kts 180°
2026-04-25 23:02 39.88284 -104.68484 5362 ft 15 kts 180°
2026-04-25 23:02 39.88170 -104.68485 5361 ft 16 kts 180°
2026-04-25 23:02 39.88041 -104.68486 5360 ft 19 kts 180°
2026-04-25 23:02 39.87899 -104.68488 5359 ft 21 kts 180°
2026-04-25 23:03 39.87740 -104.68491 5357 ft 24 kts 180°
2026-04-25 23:03 39.87561 -104.68493 5356 ft 26 kts 180°
2026-04-25 23:03 39.87376 -104.68495 5358 ft 26 kts 180°
2026-04-25 23:03 39.87191 -104.68496 5360 ft 25 kts 181°
2026-04-25 23:04 39.87007 -104.68499 5362 ft 25 kts 180°
2026-04-25 23:04 39.86823 -104.68500 5364 ft 24 kts 179°
2026-04-25 23:04 39.86638 -104.68504 5367 ft 24 kts 181°
2026-04-25 23:04 39.86454 -104.68505 5369 ft 24 kts 180°
2026-04-25 23:05 39.86275 -104.68507 5372 ft 23 kts 178°
2026-04-25 23:05 39.86098 -104.68507 5372 ft 17 kts 180°
2026-04-25 23:05 39.86033 -104.68473 5372 ft 9 kts 104°
2026-04-25 23:05 39.86030 -104.68381 5372 ft 11 kts 89°
2026-04-25 23:06 39.86029 -104.68261 5374 ft 13 kts 90°
2026-04-25 23:06 39.86053 -104.68144 5378 ft 14 kts 57°
2026-04-25 23:06 39.86069 -104.67997 5377 ft 17 kts 90°
2026-04-25 23:06 39.86067 -104.67812 5377 ft 21 kts 91°
2026-04-25 23:07 39.86064 -104.67596 5377 ft 24 kts 89°
2026-04-25 23:07 39.86062 -104.67348 5377 ft 25 kts 92°
2026-04-25 23:07 39.86062 -104.67107 5377 ft 25 kts 90°
2026-04-25 23:07 39.86060 -104.66870 5377 ft 25 kts 90°
2026-04-25 23:08 39.86059 -104.66642 5377 ft 20 kts 90°
2026-04-25 23:08 39.86025 -104.66528 5378 ft 9 kts 136°
2026-04-25 23:08 39.85972 -104.66486 5379 ft 8 kts 173°
2026-04-25 23:08 39.85909 -104.66487 5379 ft 8 kts 180°
2026-04-25 23:09 39.85844 -104.66488 5379 ft 7 kts 183°
2026-04-25 23:09 39.85825 -104.66541 5379 ft 7 kts 270°
2026-04-25 23:09 39.85825 -104.66612 5379 ft 7 kts 270°
2026-04-25 23:09 39.85826 -104.66658 5379 ft 2 kts 275°
2026-04-25 23:10 39.85841 -104.66666 5379 ft 2 kts 359°
2026-04-25 23:10 39.85864 -104.66666 5379 ft 2 kts
2026-04-25 23:10 39.85871 -104.66666 5379 ft 0 kts
2026-04-25 23:10 39.85873 -104.66666 5379 ft 0 kts